Time,TemperatureF,DewpointF,PressureIn,WindDirection,WindDirectionDegrees,WindSpeedMPH,WindSpeedGustMPH,Humidity,HourlyPrecipIn,Conditions,Clouds,dailyrainin,SoftwareType,DateUTC
2013-02-12 00:01:00,12.0,10.0,-100.00,SSE,150,3.0,4.0,91,0.00,,,0.00,,2013-02-12 09:01:00,
2013-02-12 00:11:00,12.0,10.0,-100.00,SSE,150,3.0,4.0,91,0.00,,,0.00,,2013-02-12 09:11:00,
2013-02-12 00:21:00,12.0,10.0,-100.00,SSE,160,4.0,4.0,91,0.00,,,0.00,,2013-02-12 09:21:00,
2013-02-12 00:31:00,12.0,10.0,-100.00,SSE,160,4.0,4.0,91,0.00,,,0.00,,2013-02-12 09:31:00,
2013-02-12 00:41:00,12.0,10.0,-100.00,SSE,160,4.0,4.0,91,0.00,,,0.00,,2013-02-12 09:41:00,
2013-02-12 00:52:00,12.0,10.0,-100.00,SSE,150,4.0,4.0,91,0.00,,,0.00,,2013-02-12 09:52:00,
2013-02-12 01:01:00,12.0,10.0,-100.00,SSE,150,4.0,4.0,91,0.00,,,0.00,,2013-02-12 10:01:00,
2013-02-12 01:11:00,12.0,10.0,-100.00,SSE,150,4.0,4.0,91,0.00,,,0.00,,2013-02-12 10:11:00,
2013-02-12 01:21:00,13.0,10.0,-100.00,SSE,155,4.0,4.0,91,0.00,,,0.00,,2013-02-12 10:21:00,
2013-02-12 01:31:00,13.0,10.0,-100.00,SSE,155,4.0,4.0,91,0.00,,,0.00,,2013-02-12 10:31:00,
2013-02-12 01:43:00,13.0,10.0,-100.00,SSE,155,4.0,4.0,91,0.00,,,0.00,,2013-02-12 10:43:00,
2013-02-12 02:50:00,13.0,11.0,-100.00,SSE,165,3.0,4.0,91,0.00,,,0.00,,2013-02-12 11:50:00,
2013-02-12 03:21:00,13.0,11.0,-100.00,SSE,165,3.0,4.0,91,0.00,,,0.00,,2013-02-12 12:21:00,
2013-02-12 03:32:00,13.0,11.0,-100.00,SSE,165,3.0,4.0,91,0.00,,,0.00,,2013-02-12 12:32:00,
2013-02-12 03:42:00,13.0,11.0,-100.00,SSE,165,3.0,4.0,91,0.00,,,0.00,,2013-02-12 12:42:00,
2013-02-12 04:52:00,14.0,11.0,-100.00,SE,125,2.0,4.0,91,0.00,,,0.00,,2013-02-12 13:52:00,
2013-02-12 05:01:00,14.0,11.0,-100.00,SE,125,2.0,4.0,91,0.00,,,0.00,,2013-02-12 14:01:00,
2013-02-12 05:11:00,14.0,11.0,-100.00,SE,125,2.0,4.0,91,0.00,,,0.00,,2013-02-12 14:11:00,
2013-02-12 05:21:00,14.0,12.0,-100.00,SE,145,2.0,7.0,91,0.00,,,0.00,,2013-02-12 14:21:00,
2013-02-12 05:31:00,14.0,12.0,-100.00,SE,145,2.0,7.0,91,0.00,,,0.00,,2013-02-12 14:31:00,
2013-02-12 05:41:00,14.0,12.0,-100.00,SE,145,2.0,7.0,91,0.00,,,0.00,,2013-02-12 14:41:00,
2013-02-12 05:52:00,14.0,11.0,-100.00,SSE,155,2.0,4.0,91,0.00,,,0.00,,2013-02-12 14:52:00,
2013-02-12 06:01:00,14.0,11.0,-100.00,SSE,155,2.0,4.0,91,0.00,,,0.00,,2013-02-12 15:01:00,
2013-02-12 06:11:00,14.0,11.0,-100.00,SSE,155,2.0,4.0,91,0.00,,,0.00,,2013-02-12 15:11:00,
2013-02-12 06:21:00,13.0,11.0,-100.00,ENE,65,4.0,6.0,91,0.00,,,0.00,,2013-02-12 15:21:00,
2013-02-12 06:32:00,13.0,11.0,-100.00,ENE,65,4.0,6.0,91,0.00,,,0.00,,2013-02-12 15:32:00,
2013-02-12 06:42:00,13.0,11.0,-100.00,ENE,65,4.0,6.0,91,0.00,,,0.00,,2013-02-12 15:42:00,
2013-02-12 06:52:00,13.0,11.0,-100.00,North,355,1.0,3.0,91,0.00,,,0.00,,2013-02-12 15:52:00,
2013-02-12 07:01:00,13.0,11.0,-100.00,North,355,1.0,3.0,91,0.00,,,0.00,,2013-02-12 16:01:00,
2013-02-12 07:11:00,13.0,11.0,-100.00,North,355,1.0,3.0,91,0.00,,,0.00,,2013-02-12 16:11:00,
2013-02-12 07:22:00,14.0,11.0,-100.00,ENE,60,4.0,6.0,91,0.00,,,0.00,,2013-02-12 16:22:00,
2013-02-12 07:31:00,14.0,11.0,-100.00,ENE,60,4.0,6.0,91,0.00,,,0.00,,2013-02-12 16:31:00,
2013-02-12 07:41:00,14.0,11.0,-100.00,ENE,60,4.0,6.0,91,0.00,,,0.00,,2013-02-12 16:41:00,
2013-02-12 07:52:00,14.0,12.0,-100.00,ENE,70,7.0,8.0,91,0.00,,,0.00,,2013-02-12 16:52:00,
2013-02-12 08:01:00,14.0,12.0,-100.00,ENE,70,7.0,8.0,91,0.00,,,0.00,,2013-02-12 17:01:00,
2013-02-12 08:11:00,14.0,12.0,-100.00,ENE,70,7.0,8.0,91,0.00,,,0.00,,2013-02-12 17:11:00,
2013-02-12 08:41:00,15.0,11.0,-100.00,ENE,70,6.0,8.0,88,0.00,,,0.00,,2013-02-12 17:41:00,
2013-02-12 08:52:00,14.0,11.0,-100.00,WNW,290,1.0,6.0,88,0.00,,,0.00,,2013-02-12 17:52:00,
2013-02-12 09:01:00,14.0,11.0,-100.00,WNW,290,1.0,6.0,88,0.00,,,0.00,,2013-02-12 18:01:00,
2013-02-12 09:11:00,14.0,11.0,-100.00,WNW,290,1.0,6.0,88,0.00,,,0.00,,2013-02-12 18:11:00,
2013-02-12 09:22:00,14.0,11.0,-100.00,East,95,2.0,4.0,90,0.00,,,0.00,,2013-02-12 18:22:00,
2013-02-12 09:31:00,14.0,11.0,-100.00,East,95,2.0,4.0,90,0.00,,,0.00,,2013-02-12 18:31:00,
2013-02-12 09:41:00,14.0,11.0,-100.00,East,95,2.0,4.0,90,0.00,,,0.00,,2013-02-12 18:41:00,
2013-02-12 09:52:00,14.0,11.0,-100.00,SE,145,4.0,5.0,90,0.00,,,0.00,,2013-02-12 18:52:00,
2013-02-12 10:02:00,14.0,11.0,-100.00,SE,145,4.0,5.0,90,0.00,,,0.00,,2013-02-12 19:02:00,
2013-02-12 10:11:00,14.0,11.0,-100.00,SE,145,4.0,5.0,90,0.00,,,0.00,,2013-02-12 19:11:00,
2013-02-12 10:21:00,14.0,12.0,-100.00,SE,130,4.0,6.0,90,0.00,,,0.00,,2013-02-12 19:21:00,
2013-02-12 10:31:00,14.0,12.0,-100.00,SE,130,4.0,6.0,90,0.00,,,0.00,,2013-02-12 19:31:00,
2013-02-12 10:41:00,14.0,12.0,-100.00,SE,130,4.0,6.0,90,0.00,,,0.00,,2013-02-12 19:41:00,
2013-02-12 10:52:00,17.0,15.0,-100.00,NW,325,2.0,2.0,90,0.00,,,0.00,,2013-02-12 19:52:00,
2013-02-12 11:01:00,17.0,15.0,-100.00,NW,325,2.0,2.0,90,0.00,,,0.00,,2013-02-12 20:01:00,
2013-02-12 11:11:00,17.0,15.0,-100.00,NW,325,2.0,2.0,90,0.00,,,0.00,,2013-02-12 20:11:00,
2013-02-12 11:21:00,18.0,14.0,-100.00,NE,55,1.0,6.0,85,0.00,,,0.00,,2013-02-12 20:21:00,
2013-02-12 11:31:00,18.0,14.0,-100.00,NE,55,1.0,6.0,85,0.00,,,0.00,,2013-02-12 20:31:00,
2013-02-12 11:41:00,18.0,14.0,-100.00,NE,55,1.0,6.0,85,0.00,,,0.00,,2013-02-12 20:41:00,
2013-02-12 11:52:00,17.0,13.0,-100.00,SSE,150,5.0,7.0,87,0.00,,,0.00,,2013-02-12 20:52:00,
2013-02-12 12:01:00,17.0,13.0,-100.00,SSE,150,5.0,7.0,87,0.00,,,0.00,,2013-02-12 21:01:00,
2013-02-12 12:11:00,17.0,13.0,-100.00,SSE,150,5.0,7.0,87,0.00,,,0.00,,2013-02-12 21:11:00,
2013-02-12 12:21:00,17.0,13.0,-100.00,SSE,155,4.0,6.0,86,0.00,,,0.00,,2013-02-12 21:21:00,
2013-02-12 12:31:00,17.0,13.0,-100.00,SSE,155,4.0,6.0,86,0.00,,,0.00,,2013-02-12 21:31:00,
2013-02-12 12:41:00,17.0,13.0,-100.00,SSE,155,4.0,6.0,86,0.00,,,0.00,,2013-02-12 21:41:00,
2013-02-12 12:52:00,17.0,13.0,-100.00,SSE,160,4.0,7.0,85,0.00,,,0.00,,2013-02-12 21:52:00,
2013-02-12 13:01:00,17.0,13.0,-100.00,SSE,160,4.0,7.0,85,0.00,,,0.00,,2013-02-12 22:01:00,
2013-02-12 13:12:00,17.0,13.0,-100.00,SSE,160,4.0,7.0,85,0.00,,,0.00,,2013-02-12 22:12:00,
2013-02-12 13:21:00,17.0,13.0,-100.00,South,190,6.0,11.0,84,0.00,,,0.00,,2013-02-12 22:21:00,
2013-02-12 13:31:00,17.0,13.0,-100.00,South,190,6.0,11.0,84,0.00,,,0.00,,2013-02-12 22:31:00,
2013-02-12 13:41:00,17.0,13.0,-100.00,South,190,6.0,11.0,84,0.00,,,0.00,,2013-02-12 22:41:00,
2013-02-12 13:52:00,17.0,12.0,-100.00,East,85,7.0,12.0,82,0.00,,,0.00,,2013-02-12 22:52:00,
2013-02-12 14:01:00,17.0,12.0,-100.00,East,85,7.0,12.0,82,0.00,,,0.00,,2013-02-12 23:01:00,
2013-02-12 14:11:00,17.0,12.0,-100.00,East,85,7.0,12.0,82,0.00,,,0.00,,2013-02-12 23:11:00,
2013-02-12 14:21:00,17.0,12.0,-100.00,SSE,150,7.0,9.0,82,0.00,,,0.00,,2013-02-12 23:21:00,
2013-02-12 14:31:00,17.0,12.0,-100.00,SSE,150,7.0,9.0,82,0.00,,,0.00,,2013-02-12 23:31:00,
2013-02-12 14:41:00,17.0,12.0,-100.00,SSE,150,7.0,9.0,82,0.00,,,0.00,,2013-02-12 23:41:00,
2013-02-12 14:52:00,17.0,12.0,-100.00,South,170,4.0,9.0,80,0.00,,,0.00,,2013-02-12 23:52:00,
2013-02-12 15:02:00,17.0,12.0,-100.00,South,170,4.0,9.0,80,0.00,,,0.00,,2013-02-13 00:02:00,
2013-02-12 15:11:00,17.0,12.0,-100.00,South,170,4.0,9.0,80,0.00,,,0.00,,2013-02-13 00:11:00,
2013-02-12 15:21:00,17.0,12.0,-100.00,ESE,120,6.0,11.0,81,0.00,,,0.00,,2013-02-13 00:21:00,
2013-02-12 15:32:00,17.0,12.0,-100.00,ESE,120,6.0,11.0,81,0.00,,,0.00,,2013-02-13 00:32:00,
2013-02-12 15:42:00,17.0,12.0,-100.00,ESE,120,6.0,11.0,81,0.00,,,0.00,,2013-02-13 00:42:00,
2013-02-12 15:52:00,17.0,12.0,-100.00,ESE,110,6.0,9.0,80,0.00,,,0.00,,2013-02-13 00:52:00,
2013-02-12 16:01:00,17.0,12.0,-100.00,ESE,110,6.0,9.0,80,0.00,,,0.00,,2013-02-13 01:01:00,
2013-02-12 16:11:00,17.0,12.0,-100.00,ESE,110,6.0,9.0,80,0.00,,,0.00,,2013-02-13 01:11:00,
2013-02-12 16:21:00,17.0,12.0,-100.00,SSE,155,7.0,9.0,80,0.00,,,0.00,,2013-02-13 01:21:00,
2013-02-12 16:31:00,17.0,12.0,-100.00,SSE,155,7.0,9.0,80,0.00,,,0.00,,2013-02-13 01:31:00,
2013-02-12 16:42:00,17.0,12.0,-100.00,SSE,155,7.0,9.0,80,0.00,,,0.00,,2013-02-13 01:42:00,
2013-02-12 16:52:00,17.0,12.0,-100.00,SSE,150,6.0,10.0,80,0.00,,,0.00,,2013-02-13 01:52:00,
2013-02-12 17:01:00,17.0,12.0,-100.00,SSE,150,6.0,10.0,80,0.00,,,0.00,,2013-02-13 02:01:00,
2013-02-12 17:11:00,17.0,12.0,-100.00,SSE,150,6.0,10.0,80,0.00,,,0.00,,2013-02-13 02:11:00,
2013-02-12 17:21:00,17.0,11.0,-100.00,SE,145,7.0,11.0,80,0.00,,,0.00,,2013-02-13 02:21:00,
2013-02-12 17:31:00,17.0,11.0,-100.00,SE,145,7.0,11.0,80,0.00,,,0.00,,2013-02-13 02:31:00,
2013-02-12 17:41:00,17.0,11.0,-100.00,SE,145,7.0,11.0,80,0.00,,,0.00,,2013-02-13 02:41:00,
2013-02-12 17:52:00,16.0,10.0,-100.00,South,180,6.0,10.0,78,0.00,,,0.00,,2013-02-13 02:52:00,
2013-02-12 18:01:00,16.0,10.0,-100.00,South,180,6.0,10.0,78,0.00,,,0.00,,2013-02-13 03:01:00,
2013-02-12 18:11:00,16.0,10.0,-100.00,South,180,6.0,10.0,78,0.00,,,0.00,,2013-02-13 03:11:00,
2013-02-12 18:21:00,15.0,11.0,-100.00,South,190,6.0,8.0,81,0.00,,,0.00,,2013-02-13 03:21:00,
2013-02-12 18:32:00,15.0,11.0,-100.00,South,190,6.0,8.0,81,0.00,,,0.00,,2013-02-13 03:32:00,
2013-02-12 18:41:00,15.0,11.0,-100.00,South,190,6.0,8.0,81,0.00,,,0.00,,2013-02-13 03:41:00,
2013-02-12 18:52:00,17.0,10.0,-100.00,South,170,7.0,11.0,75,0.00,,,0.00,,2013-02-13 03:52:00,
2013-02-12 19:01:00,17.0,10.0,-100.00,South,170,7.0,11.0,75,0.00,,,0.00,,2013-02-13 04:01:00,
2013-02-12 19:11:00,17.0,10.0,-100.00,South,170,7.0,11.0,75,0.00,,,0.00,,2013-02-13 04:11:00,
2013-02-12 19:21:00,17.0,10.0,-100.00,SE,135,3.0,10.0,74,0.00,,,0.00,,2013-02-13 04:21:00,
2013-02-12 19:31:00,17.0,10.0,-100.00,SE,135,3.0,10.0,74,0.00,,,0.00,,2013-02-13 04:31:00,
2013-02-12 19:41:00,17.0,10.0,-100.00,SE,135,3.0,10.0,74,0.00,,,0.00,,2013-02-13 04:41:00,
2013-02-12 19:52:00,18.0,10.0,-100.00,SE,140,4.0,7.0,70,0.00,,,0.00,,2013-02-13 04:52:00,
2013-02-12 20:01:00,18.0,10.0,-100.00,SE,140,4.0,7.0,70,0.00,,,0.00,,2013-02-13 05:01:00,
2013-02-12 20:41:00,17.0,9.0,-100.00,SE,145,6.0,9.0,70,0.00,,,0.00,,2013-02-13 05:41:00,
2013-02-12 20:52:00,16.0,9.0,-100.00,SSE,155,6.0,9.0,74,0.00,,,0.00,,2013-02-13 05:52:00,
2013-02-12 21:02:00,16.0,9.0,-100.00,SSE,155,6.0,9.0,74,0.00,,,0.00,,2013-02-13 06:02:00,
2013-02-12 21:11:00,16.0,9.0,-100.00,SSE,155,6.0,9.0,74,0.00,,,0.00,,2013-02-13 06:11:00,
2013-02-12 21:21:00,15.0,9.0,-100.00,ESE,115,4.0,9.0,77,0.00,,,0.00,,2013-02-13 06:21:00,
2013-02-12 21:31:00,15.0,9.0,-100.00,ESE,115,4.0,9.0,77,0.00,,,0.00,,2013-02-13 06:31:00,
2013-02-12 21:41:00,15.0,9.0,-100.00,ESE,115,4.0,9.0,77,0.00,,,0.00,,2013-02-13 06:41:00,
2013-02-12 21:52:00,18.0,10.0,-100.00,ESE,110,5.0,11.0,72,0.00,,,0.00,,2013-02-13 06:52:00,
2013-02-12 22:02:00,18.0,10.0,-100.00,ESE,110,5.0,11.0,72,0.00,,,0.00,,2013-02-13 07:02:00,
2013-02-12 22:41:00,18.0,10.0,-100.00,ESE,105,4.0,12.0,70,0.00,,,0.00,,2013-02-13 07:41:00,
2013-02-12 22:51:00,17.0,9.0,-100.00,East,85,6.0,12.0,72,0.00,,,0.00,,2013-02-13 07:51:00,
2013-02-12 23:01:00,17.0,9.0,-100.00,East,85,6.0,12.0,72,0.00,,,0.00,,2013-02-13 08:01:00,
2013-02-12 23:11:00,17.0,9.0,-100.00,East,85,6.0,12.0,72,0.00,,,0.00,,2013-02-13 08:11:00,
2013-02-12 23:21:00,18.0,9.0,-100.00,East,90,7.0,12.0,69,0.00,,,0.00,,2013-02-13 08:21:00,
2013-02-12 23:31:00,18.0,9.0,-100.00,East,90,7.0,12.0,69,0.00,,,0.00,,2013-02-13 08:31:00,
2013-02-12 23:43:00,18.0,9.0,-100.00,East,90,7.0,12.0,69,0.00,,,0.00,,2013-02-13 08:43:00,
2013-02-12 23:52:00,18.0,9.0,-100.00,East,90,7.0,13.0,68,0.00,,,0.00,,2013-02-13 08:52:00,